GFSNGP_925_spd_000.txt.gz
Wind_Speed
7 10 13 11 13 12 14 14 10 14 14 14 13 12 10 4 11 15 13 12 12 11 13 16 14 12 10 10 11 9 8 12 8 7 8 11 13 14 15 15 16 16 17 16
4 8 10 12 14 14 13 12 13 14 15 6 7 7 5 12 14 14 11 12 12 13 17 14 14 16 11 13 11 6 9 5 6 9 11 12 13 15 17 17 15 16 16 17
4 9 13 6 3 4 4 4 8 10 8 7 6 9 13 16 14 9 11 12 12 14 17 17 19 14 16 16 9 7 8 6 8 10 12 13 15 17 17 17 17 18 17 16
3 5 3 3 5 9 13 13 8 9 3 5 9 15 17 6 7 7 10 13 14 17 20 22 20 17 16 13 10 10 10 10 10 11 11 14 16 16 17 18 18 17 16 17
2 4 14 12 4 2 2 11 3 3 8 14 18 16 6 4 4 12 13 16 19 21 24 25 20 18 16 14 13 12 13 12 12 11 12 14 15 16 18 18 18 17 17 19
3 4 4 3 3 4 4 8 3 9 15 17 17 12 4 15 11 15 17 17 20 23 24 22 18 17 16 16 15 15 12 13 12 11 11 14 15 18 18 19 19 17 18 19
6 6 7 6 5 1 3 3 11 6 5 8 6 4 12 10 13 15 17 19 21 23 23 22 21 18 16 15 13 10 10 12 13 11 12 13 16 19 20 20 19 14 16 18
3 4 6 2 2 2 5 5 1 3 4 7 7 8 9 11 13 17 18 20 23 25 25 25 22 17 16 12 10 10 13 15 13 11 11 14 17 20 21 21 17 15 18 18
7 6 4 6 8 4 1 4 6 2 4 6 7 9 11 12 14 17 20 22 24 25 26 25 22 18 16 13 11 12 15 13 12 11 12 15 18 20 19 17 14 16 19 20
6 10 11 11 5 4 1 1 2 5 3 5 9 10 13 14 17 19 21 23 23 24 25 25 24 17 14 13 13 15 15 12 11 11 12 15 16 16 15 14 12 16 18 19
11 13 11 4 1 3 3 3 5 6 6 7 8 12 14 14 18 20 21 21 22 23 25 26 24 15 11 14 13 14 12 10 10 9 11 13 13 12 11 10 9 13 14 17
4 4 6 5 3 8 6 7 4 4 6 9 13 14 18 18 21 21 22 23 23 25 25 25 19 16 14 8 9 9 9 8 8 9 10 10 11 13 8 7 9 8 9 11
5 5 6 3 2 5 3 2 5 8 11 13 19 17 19 20 22 23 23 24 23 23 24 23 20 13 8 9 7 6 6 6 7 7 8 8 10 11 11 10 9 7 9 11
4 4 2 5 2 2 3 5 9 14 18 18 18 19 21 23 26 25 24 25 23 22 22 17 11 10 7 6 6 7 7 8 7 6 5 8 9 9 10 12 13 12 10 10
3 2 1 6 3 3 7 10 12 13 18 19 20 21 23 25 25 25 24 21 20 20 18 13 10 8 6 4 6 8 8 7 6 4 5 7 7 9 9 11 12 12 12 11
7 6 4 1 4 6 9 11 13 14 18 21 22 23 23 23 24 22 19 17 16 17 14 12 8 6 4 5 7 7 7 5 3 4 6 7 7 8 10 10 10 10 11 11
6 4 2 4 7 9 10 12 13 16 20 21 21 21 24 22 18 18 19 17 16 16 13 10 8 5 5 5 7 8 6 5 4 4 6 7 6 7 8 9 9 9 9 8
4 2 2 6 8 9 11 14 14 16 18 21 24 20 18 16 19 22 21 18 17 14 10 8 6 4 5 5 6 8 6 4 4 4 5 6 6 6 7 8 8 8 8 7
1 4 7 8 9 11 13 15 16 19 22 20 19 20 20 21 22 21 18 16 14 11 8 6 5 5 5 5 6 5 4 4 5 4 5 6 7 6 7 7 8 7 7 7
6 8 11 12 12 12 14 19 19 19 19 19 20 19 19 20 22 21 20 17 17 13 7 8 5 6 7 7 5 7 7 7 6 4 5 7 7 7 7 6 6 7 7 6
10 12 11 14 15 19 19 20 19 18 22 20 18 19 20 24 23 21 17 14 11 7 9 13 9 6 6 6 6 6 7 6 5 5 6 7 8 8 7 7 7 7 7 6
12 12 14 16 16 17 19 18 16 22 21 21 20 19 19 20 20 19 18 19 11 7 7 10 8 8 6 6 5 4 5 6 6 6 7 7 8 7 7 7 7 7 6 6
14 13 14 16 15 16 20 23 22 20 18 16 18 20 20 21 21 18 14 11 8 11 10 10 9 8 6 6 6 5 4 4 5 5 5 6 7 7 7 8 7 7 7 6
14 13 14 16 15 14 15 19 16 16 16 18 20 22 24 24 23 17 17 13 10 9 12 12 10 10 8 7 7 8 8 8 8 9 8 8 7 7 7 7 7 7 7 7
15 15 13 13 11 13 15 17 18 17 17 19 19 21 22 24 20 22 13 10 10 12 12 14 12 11 10 8 6 7 7 7 7 8 9 9 9 8 8 8 8 8 8 8
14 14 14 13 14 14 15 15 16 18 18 18 20 21 23 24 21 16 11 11 9 9 12 12 14 13 11 9 8 7 7 6 6 6 7 8 9 9 9 9 9 9 9 9
15 13 11 11 12 13 15 16 18 18 16 17 21 22 22 24 20 13 12 14 15 15 13 12 12 13 12 10 9 8 7 6 6 6 6 6 7 8 9 10 10 10 10 9

GFSNGP_925_spd_003.txt.gz
Wind_Speed
9 11 9 10 12 12 13 13 11 13 15 14 11 11 11 7 9 12 14 14 14 16 19 18 16 16 18 14 16 16 16 16 16 12 13 15 15 17 18 19 19 19 19 20
4 6 7 12 14 16 12 8 13 12 14 10 8 8 10 15 16 15 12 13 16 19 19 20 18 20 20 16 17 17 17 17 15 15 14 15 15 17 19 19 19 20 21 22
4 10 11 6 3 3 5 8 7 10 10 8 10 14 13 13 13 11 12 15 17 16 17 20 21 22 24 19 20 15 19 18 17 14 15 15 16 18 18 19 20 21 22 21
3 6 2 5 7 13 9 9 10 8 9 9 11 13 9 7 9 12 15 15 14 18 20 23 25 25 25 21 25 22 19 19 17 15 16 16 17 19 19 21 21 22 21 19
2 5 14 12 4 5 7 12 12 6 9 12 17 14 4 3 13 13 12 17 18 20 22 26 27 27 27 25 26 24 20 19 12 18 17 17 18 19 20 22 22 21 18 19
3 3 4 3 2 3 6 9 7 6 10 11 12 11 10 15 15 14 17 19 20 21 24 26 27 28 29 28 26 24 18 16 16 16 16 18 18 20 21 23 21 19 17 19
6 5 8 8 3 5 4 3 6 9 5 10 8 9 12 14 13 17 18 20 22 23 25 26 28 29 28 29 25 19 14 12 17 17 17 17 18 21 22 22 20 12 15 19
3 4 6 3 4 2 8 11 4 3 7 8 10 11 10 11 13 18 21 24 24 26 25 28 28 29 30 32 27 16 9 13 17 18 15 16 19 21 21 22 16 16 17 19
8 6 7 7 9 11 6 6 3 5 5 10 11 11 11 12 15 20 23 25 26 25 27 28 29 28 30 28 20 15 15 18 18 16 15 17 18 20 20 17 15 16 19 19
7 7 14 7 12 3 4 2 5 8 10 8 11 10 12 14 17 21 24 26 25 27 27 27 28 29 26 18 16 18 17 18 17 14 12 15 16 17 14 15 13 16 19 19
14 16 14 13 4 0 5 6 6 9 8 9 10 12 15 15 21 23 26 26 28 26 26 26 27 26 22 18 16 16 16 16 14 12 12 15 15 12 12 8 6 12 14 15
11 7 4 7 12 13 11 6 5 6 8 10 14 16 22 21 24 25 26 30 28 29 29 27 26 24 22 15 12 14 14 13 11 11 11 12 12 13 10 8 11 12 8 9
7 1 2 5 8 10 6 4 4 7 11 13 19 22 24 23 25 27 29 29 28 29 27 25 23 17 13 11 8 9 11 11 11 10 9 8 9 11 12 9 12 8 7 8
2 1 1 5 6 2 3 4 5 11 15 18 22 23 24 25 28 28 27 28 28 26 25 24 20 15 11 9 8 9 9 11 8 9 7 7 8 9 9 10 13 11 9 11
2 3 11 1 2 3 4 7 10 12 17 19 20 22 22 24 25 28 29 27 23 21 23 20 17 13 11 6 7 9 7 9 8 7 5 7 7 7 8 9 12 12 13 11
6 4 4 2 2 4 6 9 12 13 16 19 20 20 22 25 26 27 26 22 18 19 20 20 17 12 9 8 10 11 8 6 7 6 6 6 6 6 8 9 11 11 12 12
7 6 3 3 5 7 9 12 14 15 16 18 19 21 24 22 22 22 24 24 23 22 22 18 18 11 8 9 9 11 8 6 7 8 7 6 7 7 7 8 10 10 11 7
3 4 1 3 6 8 10 12 13 14 16 18 24 22 19 18 20 23 25 26 22 21 21 16 13 9 8 9 9 9 8 7 6 7 6 6 6 8 7 8 9 10 10 8
3 1 4 7 9 10 11 14 15 15 21 20 19 19 21 22 21 23 25 22 21 19 17 11 11 9 7 8 8 8 7 7 7 8 6 6 8 8 8 8 9 10 9 10
2 5 9 11 11 10 13 16 18 17 18 18 21 19 20 22 21 23 22 23 22 21 16 8 10 9 7 8 9 8 7 8 10 9 7 7 8 8 9 9 9 10 9 9
6 10 10 11 13 15 17 20 20 19 21 19 19 19 21 24 21 21 22 18 21 17 12 13 13 10 8 8 7 9 8 9 9 9 9 8 8 9 9 9 10 9 9 9
10 12 13 15 15 15 15 17 14 20 24 23 19 17 19 22 20 21 21 23 22 16 10 11 12 12 10 7 8 7 8 9 9 9 9 10 8 9 9 9 9 9 9 9
14 15 14 14 16 16 17 19 22 19 21 19 19 19 20 21 21 18 17 20 18 16 13 13 13 13 12 10 10 11 9 8 8 9 8 8 8 9 10 10 10 9 10 10
14 14 14 14 15 15 15 17 14 15 19 20 22 19 20 19 22 18 23 21 19 13 12 14 15 14 12 10 9 11 13 14 13 14 12 13 12 11 11 11 11 10 10 11
14 14 14 15 13 14 16 17 16 17 16 18 19 17 17 19 19 26 25 23 15 13 15 16 17 15 15 14 13 13 13 13 13 13 13 13 12 12 12 12 12 12 12 12
15 15 17 18 18 17 16 16 18 17 18 19 19 18 20 22 22 23 23 19 15 14 13 16 17 18 18 17 16 16 14 14 13 14 13 12 12 12 13 14 14 14 14 14
16 17 16 16 16 15 15 16 14 18 18 19 22 21 20 23 22 23 21 20 18 18 18 19 20 20 20 19 20 17 16 15 14 14 12 12 11 11 11 12 12 13 14 15

GFSNGP_925_spd_006.txt.gz
Wind_Speed
7 8 7 9 11 11 12 11 8 10 13 8 8 9 15 13 12 11 9 11 12 12 16 16 17 17 19 19 21 17 17 14 16 15 11 12 9 12 16 18 17 17 20 21
2 3 9 12 14 14 15 14 9 12 13 6 14 12 12 10 10 11 12 13 13 16 16 16 18 19 23 23 24 11 18 20 20 22 14 9 11 13 16 17 17 19 19 20
2 9 9 2 3 3 5 7 9 5 9 11 8 9 11 7 9 11 12 12 13 14 15 17 19 23 23 26 29 25 23 19 12 10 11 9 12 13 18 17 19 19 20 18
2 5 2 4 13 11 9 7 7 9 6 7 9 12 12 9 9 11 12 12 13 15 17 17 22 22 25 27 29 33 30 16 14 11 10 15 7 10 18 18 19 20 16 14
0 3 9 10 5 5 5 10 11 5 8 11 13 10 5 9 10 9 10 14 16 18 20 22 22 24 27 29 30 30 32 19 18 6 14 10 9 12 18 19 20 13 14 15
2 2 3 1 7 6 8 8 7 9 9 9 12 6 6 14 13 14 18 18 20 22 22 22 22 27 26 27 27 29 28 17 15 15 13 12 12 15 16 16 15 14 13 15
4 4 6 9 4 3 3 2 7 4 8 9 7 4 9 12 11 16 18 20 23 21 21 20 24 25 24 26 26 24 21 17 16 15 16 16 13 15 14 16 14 11 15 22
4 4 6 2 1 2 6 8 3 3 4 5 7 9 10 10 12 17 19 22 22 24 20 23 24 24 21 21 24 22 18 17 17 17 17 14 14 14 18 15 12 15 19 20
9 5 8 1 5 7 3 5 4 5 6 6 7 10 10 10 12 16 20 21 25 22 23 26 22 22 20 21 20 19 17 21 18 18 17 11 16 16 15 11 12 14 15 18
4 8 9 6 4 10 5 1 4 3 5 8 8 8 10 10 13 17 19 23 21 26 26 22 24 23 20 20 19 19 17 18 18 16 16 14 14 15 12 11 9 11 13 13
7 11 10 3 7 6 5 4 2 5 7 6 7 9 11 11 16 19 21 20 25 23 22 23 26 23 22 20 19 14 15 16 18 13 14 14 14 9 8 8 9 10 10 10
8 4 3 4 4 1 2 2 4 3 5 8 11 11 16 15 19 21 23 25 24 24 24 25 25 23 22 16 10 11 11 14 15 15 13 13 10 11 14 15 12 14 11 11
7 4 3 3 4 1 3 4 4 4 7 8 14 15 18 18 19 23 23 24 24 25 24 24 24 23 19 12 10 7 8 12 13 14 12 10 9 10 12 14 14 14 12 11
5 5 3 2 2 5 4 1 3 5 9 12 16 16 17 17 20 20 22 23 26 26 22 21 24 19 15 11 8 6 10 9 8 9 9 8 11 14 13 11 13 14 11 11
6 2 4 1 6 4 4 1 5 7 11 12 14 15 16 17 19 21 22 23 22 24 24 22 20 22 20 12 8 10 13 11 7 8 11 10 11 11 11 11 12 14 12 8
6 6 6 3 2 2 2 4 7 8 11 13 13 12 13 18 20 21 21 19 21 23 26 24 23 25 17 13 11 12 15 6 3 7 9 9 8 9 11 10 11 12 13 8
7 6 4 3 0 3 4 7 9 9 10 11 12 13 19 20 21 19 21 22 24 25 28 25 24 20 14 12 11 13 12 5 6 11 10 8 9 10 10 9 11 12 12 11
7 8 8 3 2 4 4 6 6 7 10 12 19 20 20 17 17 22 23 25 24 25 25 24 22 16 12 10 11 10 9 10 10 9 9 8 8 10 13 12 11 11 11 12
10 7 5 3 5 5 5 7 9 10 18 19 19 20 20 21 21 20 22 22 22 23 22 20 18 13 12 10 10 10 10 10 10 11 12 9 9 11 12 12 12 10 12 12
7 5 5 6 7 9 10 13 15 15 18 17 18 20 19 19 16 22 21 22 25 28 21 21 13 11 11 9 10 9 10 10 12 13 13 11 10 12 10 13 13 13 12 12
4 3 5 7 11 12 14 16 16 18 21 19 19 18 18 21 19 23 20 18 24 22 22 17 15 15 12 13 12 11 11 12 12 13 13 12 11 11 11 12 13 13 12 12
3 7 10 12 13 15 15 16 17 18 22 23 20 16 19 21 21 19 23 25 23 18 19 19 14 14 15 11 9 11 10 11 13 13 13 13 12 12 9 13 13 13 13 12
7 10 12 13 15 16 16 17 23 23 20 17 15 15 19 19 20 17 19 20 29 20 21 18 14 14 14 16 17 15 14 15 13 13 13 13 13 14 14 15 14 14 15 15
12 13 14 15 15 16 15 20 19 19 20 19 17 17 18 18 17 17 20 26 26 26 20 15 15 16 17 19 17 15 15 15 17 16 17 17 17 18 17 16 15 15 15 15
13 15 15 16 15 16 19 20 15 13 15 13 17 24 20 19 18 24 25 27 26 24 19 17 17 19 21 22 21 20 18 18 18 17 17 17 17 16 15 15 18 17 16 16
15 14 14 15 17 19 19 17 15 16 13 13 17 20 22 23 24 24 24 24 24 23 21 20 20 20 24 26 25 24 22 21 20 19 20 20 20 20 20 19 18 18 17 18
15 15 15 15 16 17 19 18 15 11 10 15 19 19 19 23 24 24 23 24 23 22 22 23 23 24 26 28 28 28 25 25 22 20 19 19 19 19 19 18 17 16 16 16

GFSNGP_925_spd_009.txt.gz
Wind_Speed
4 5 4 3 4 5 5 6 6 8 7 9 8 8 5 5 7 8 7 6 6 6 13 15 13 16 21 21 24 28 27 29 32 22 7 10 4 4 14 13 8 10 15 15
2 6 8 4 7 7 7 7 6 3 4 10 7 6 5 6 8 7 6 7 6 10 14 11 12 18 19 21 26 28 30 33 27 10 12 9 12 18 16 5 11 16 14 14
2 4 5 4 4 3 1 1 1 2 1 7 8 9 8 8 6 5 5 6 6 10 12 11 16 16 20 21 24 28 30 24 23 16 17 14 10 18 9 9 11 15 9 7
2 3 2 4 4 1 5 5 7 9 11 10 7 7 8 7 5 4 3 5 9 12 13 13 13 17 19 21 24 25 19 23 20 15 14 12 10 8 9 10 12 4 7 9
3 1 6 6 2 3 4 4 7 7 7 6 5 5 4 5 3 1 3 8 9 13 11 13 16 20 21 21 22 19 16 16 15 12 12 13 16 18 14 11 2 7 8 13
2 4 6 6 4 6 3 3 3 6 5 4 2 2 3 6 6 3 9 10 13 13 16 14 17 21 21 23 18 12 13 13 15 16 15 16 12 16 8 7 5 8 12 16
3 2 7 8 4 5 4 6 3 5 4 2 1 4 4 8 3 8 10 11 12 16 10 16 23 27 22 19 11 10 13 14 16 18 20 19 12 8 11 5 7 11 13 15
3 2 7 6 4 7 5 4 6 5 5 3 1 4 6 3 6 10 9 12 16 12 17 22 24 20 17 13 14 14 15 15 14 16 17 14 13 13 7 7 10 13 16 19
9 7 7 6 7 5 6 5 4 5 4 2 3 4 3 3 5 8 11 15 13 20 21 21 17 22 13 11 13 16 16 12 16 15 14 12 12 10 7 9 12 12 15 16
4 6 6 7 4 5 6 8 7 6 3 3 5 2 3 4 6 11 14 17 19 19 19 18 22 18 15 17 16 13 10 12 14 12 13 13 11 8 8 12 12 12 14 15
3 3 5 6 7 7 7 5 6 7 5 3 2 4 4 4 9 11 14 17 19 19 20 22 19 20 22 23 16 9 9 13 11 13 14 13 10 6 10 12 11 13 13 12
5 4 4 4 6 6 5 6 6 5 5 6 8 6 10 7 10 15 16 19 20 21 22 22 21 22 25 20 12 9 11 9 11 11 12 10 7 7 10 14 12 14 12 10
4 4 7 8 6 7 4 6 11 8 5 6 11 11 11 8 12 14 18 20 19 20 22 22 26 19 13 15 14 11 9 11 8 8 7 6 7 12 16 13 12 14 13 8
10 10 5 6 4 8 11 11 7 6 12 13 11 11 9 10 11 17 18 20 22 19 24 22 23 21 21 24 16 9 10 12 9 9 10 8 9 11 11 12 14 15 11 7
8 6 5 10 7 9 9 10 7 6 10 11 10 7 9 8 13 18 19 23 19 23 22 21 22 23 21 21 15 12 13 15 16 9 6 6 8 9 10 11 12 11 12 5
8 8 6 9 9 8 7 7 7 5 6 5 4 9 7 13 18 20 22 18 21 24 28 27 28 25 20 19 12 11 14 15 6 5 4 6 10 7 12 11 11 12 11 10
10 7 7 8 9 7 7 8 7 2 3 5 9 10 16 17 18 20 24 23 23 23 23 26 28 21 21 16 14 11 13 3 4 7 9 7 9 9 9 12 13 12 12 11
15 15 12 11 7 7 5 3 1 4 6 7 13 16 16 17 18 24 24 22 22 23 21 24 22 21 21 15 12 11 11 11 8 9 10 11 11 9 12 13 13 13 11 12
18 13 16 16 12 7 2 5 7 7 10 14 16 17 16 18 18 19 20 20 21 24 25 25 26 20 19 15 12 14 13 12 11 11 12 13 12 11 10 12 11 13 13 14
15 16 13 8 4 3 6 8 9 10 13 15 15 16 18 16 15 18 20 21 21 25 27 26 24 21 21 15 13 14 13 12 12 11 14 15 14 15 13 10 13 14 14 16
9 7 2 3 6 7 9 11 11 12 15 15 15 18 18 18 18 18 19 17 23 26 21 27 22 25 22 17 16 16 17 15 14 13 14 15 15 14 15 14 11 13 13 13
3 1 4 6 8 10 11 11 12 16 17 19 20 17 16 18 21 22 19 20 24 23 30 24 28 25 18 16 15 16 19 18 17 14 15 16 16 14 14 12 13 14 14 13
4 6 6 8 10 13 14 14 18 21 21 19 18 17 14 19 19 18 17 16 20 25 29 26 26 22 17 17 18 19 20 19 20 20 17 16 16 16 16 16 15 15 15 15
8 9 10 11 11 13 15 21 20 21 22 21 20 16 15 18 23 19 19 22 24 24 26 26 24 20 18 20 22 23 24 24 22 20 21 22 21 19 20 19 20 17 15 15
12 13 14 14 14 17 19 19 19 20 19 16 11 8 13 18 19 24 24 25 26 24 25 25 24 21 20 22 25 29 29 28 26 23 22 22 22 22 20 19 16 16 16 16
13 15 17 17 18 19 22 23 22 26 23 15 10 15 16 16 19 23 21 22 22 23 24 23 24 24 23 23 24 27 30 31 30 28 27 25 24 22 23 23 21 20 18 17
15 14 14 15 18 21 23 22 16 15 13 13 18 20 18 20 21 21 20 21 21 22 24 24 24 25 25 25 25 28 32 32 33 30 29 27 24 23 20 20 20 18 18 17

GFSNGP_925_spd_012.txt.gz
Wind_Speed
2 4 1 1 1 2 5 4 5 6 7 8 8 8 7 9 7 7 6 5 5 4 7 2 4 10 10 13 16 17 16 16 15 18 19 15 18 20 14 17 17 13 10 16
1 5 6 3 5 6 5 4 5 2 3 4 5 7 7 6 7 5 3 1 3 6 7 3 6 7 10 12 13 14 13 11 14 16 13 16 15 14 19 18 5 13 15 9
3 4 5 5 5 3 2 2 3 5 5 5 5 7 6 6 6 5 3 4 6 4 1 4 5 6 9 12 13 10 5 9 15 14 15 16 14 13 17 12 14 13 1 2
2 3 1 5 4 5 7 3 8 10 6 6 7 5 6 5 5 5 5 5 3 2 4 3 3 8 11 12 12 8 6 11 12 12 14 15 13 14 12 6 15 4 2 6
3 3 5 4 5 5 6 4 6 10 7 6 7 5 3 5 4 4 4 3 2 3 1 1 6 13 16 17 14 5 8 8 12 12 15 16 18 14 14 9 5 3 4 7
3 4 6 5 3 6 5 4 8 8 7 7 8 3 4 5 2 3 3 1 3 3 2 7 16 18 16 13 8 6 8 12 12 14 15 17 16 9 2 3 6 4 6 9
3 2 8 7 4 3 5 7 7 8 7 7 5 5 4 1 2 1 3 7 6 7 10 14 15 13 12 7 7 7 9 13 12 9 13 14 5 8 4 8 5 4 8 8
3 2 8 7 5 7 6 4 7 6 7 7 6 6 4 3 1 8 9 10 10 11 12 13 13 16 10 7 8 12 15 14 8 10 10 8 5 3 7 4 3 5 8 9
10 7 5 7 6 4 7 6 7 8 6 7 7 5 4 3 7 9 9 9 9 10 11 13 17 11 10 12 16 18 11 7 7 9 6 7 4 4 5 3 4 7 9 10
3 6 9 8 0 5 5 6 6 5 6 6 5 6 6 6 6 7 7 8 9 11 13 17 17 12 15 19 20 18 11 7 9 7 7 5 5 3 3 4 6 8 9 9
4 4 2 3 2 6 7 7 7 7 5 5 7 6 7 5 6 4 5 7 11 13 15 19 18 20 21 17 19 14 10 8 7 6 7 6 2 3 6 7 6 9 9 8
7 6 4 5 7 7 7 8 9 7 7 9 12 7 8 6 4 4 7 13 14 15 19 16 20 24 20 13 17 15 15 14 7 5 5 2 1 1 6 7 7 9 9 7
5 6 6 8 9 8 7 6 9 11 16 9 11 10 7 3 3 7 12 14 15 20 17 18 22 21 21 20 21 21 17 13 9 7 5 4 3 4 9 9 7 8 8 7
5 8 4 5 6 8 15 14 20 19 17 15 11 8 5 4 6 10 14 15 19 19 19 23 21 22 22 18 16 21 15 12 12 12 8 7 6 6 8 8 10 9 9 7
9 2 6 8 11 10 14 16 11 8 10 9 7 6 7 6 8 14 16 18 18 18 18 19 19 23 20 18 17 17 14 12 12 12 8 6 7 6 5 8 9 8 9 8
7 6 9 11 11 11 11 8 8 5 6 5 5 5 6 7 13 14 15 15 15 17 19 20 21 22 20 19 19 15 13 11 11 5 6 7 8 8 6 6 7 9 10 9
8 7 11 13 12 8 6 6 8 5 4 2 2 4 9 12 12 14 17 14 15 17 20 21 23 21 21 21 19 15 13 10 8 9 11 11 12 9 8 7 11 11 12 10
15 16 18 14 9 6 5 6 4 2 1 2 3 7 10 11 11 14 16 16 18 19 19 19 20 22 25 19 19 14 13 11 11 12 12 11 12 12 13 9 10 10 11 8
25 19 16 12 11 8 5 3 1 3 4 6 7 9 9 11 11 13 15 13 18 20 23 23 21 21 22 21 23 18 16 16 16 14 14 13 14 13 14 13 12 10 11 12
14 13 13 9 5 5 0 3 3 5 7 7 9 10 12 14 11 14 16 19 20 22 20 23 22 23 19 25 21 16 15 16 16 15 14 15 15 15 16 16 15 13 11 11
10 9 7 4 1 2 4 5 6 8 9 11 12 15 17 18 16 15 18 15 22 17 18 22 26 25 23 24 18 15 17 18 20 20 19 20 17 16 16 18 16 17 12 11
6 6 4 4 5 6 7 8 9 12 14 16 16 17 17 18 19 17 18 19 25 17 19 23 25 25 23 23 18 16 18 20 23 24 24 23 21 18 18 19 16 14 14 14
4 5 6 7 8 9 11 13 14 15 16 17 19 20 20 20 17 15 16 19 22 23 24 25 25 25 23 22 20 20 21 22 23 25 27 27 26 22 21 19 18 18 18 16
7 8 9 10 10 11 11 15 15 16 17 18 19 19 17 13 16 15 17 20 21 21 23 23 22 23 23 21 20 20 23 27 29 30 32 30 27 28 27 25 24 22 20 21
7 8 9 11 11 15 16 18 19 20 20 19 19 16 10 10 15 20 19 21 21 21 22 22 22 21 23 22 20 22 25 26 28 30 31 32 31 29 28 26 26 23 19 16
12 13 14 14 14 15 17 18 18 19 15 13 14 13 16 16 17 18 20 20 18 17 18 18 21 22 22 20 21 23 25 28 29 30 31 31 30 30 29 27 24 22 21 21
15 16 17 17 18 22 22 20 18 16 17 19 21 21 19 18 17 16 16 13 12 14 17 18 18 19 20 21 23 26 28 27 26 29 31 31 30 30 29 26 23 21 19 18

GFSNGP_925_spd_015.txt.gz
Wind_Speed
3 4 2 0 4 6 6 5 5 5 7 7 10 9 8 7 6 6 6 5 4 3 2 3 3 5 2 3 7 11 11 11 11 10 10 14 19 19 18 19 16 19 9 10
1 5 6 3 5 6 5 4 7 6 7 4 6 7 7 8 8 7 5 4 2 2 4 3 4 4 2 6 10 10 11 11 11 11 13 14 16 15 14 18 15 9 15 15
3 4 4 6 8 8 5 4 6 6 8 6 5 9 10 8 7 6 5 5 3 4 4 6 8 5 6 11 12 13 14 14 11 12 13 15 17 15 16 14 11 9 6 2
2 3 2 6 3 5 5 3 3 2 6 9 6 4 5 6 6 7 6 5 5 7 7 8 6 5 11 14 16 16 14 11 11 15 16 18 17 16 12 8 12 4 3 2
4 3 5 4 5 6 7 7 6 7 6 4 4 4 3 6 5 6 6 8 8 6 5 4 4 10 13 13 11 10 9 11 13 15 18 18 19 18 12 8 4 5 1 4
3 4 6 6 3 5 4 5 9 8 8 8 6 4 5 8 6 8 7 7 8 4 4 4 8 7 9 9 9 11 11 13 15 17 14 15 18 8 2 3 4 3 2 5
2 4 8 7 4 3 5 7 7 10 9 10 8 5 3 7 6 7 9 9 8 5 2 5 4 10 11 10 11 11 14 18 17 12 13 14 11 10 8 7 6 1 3 3
3 1 8 7 3 8 6 1 9 8 9 12 7 7 5 6 6 12 11 10 5 3 4 5 10 11 9 10 12 16 20 20 14 11 10 9 7 3 6 6 4 2 3 3
10 6 4 6 5 5 6 6 7 8 6 8 7 5 6 6 7 11 9 6 3 3 4 7 11 9 10 14 17 19 22 19 12 9 9 7 5 7 7 5 2 3 4 4
2 5 8 8 6 4 6 6 5 6 7 8 7 7 6 6 8 8 6 3 1 4 7 11 13 10 13 19 17 15 18 12 9 8 9 7 7 6 6 3 4 4 5 5
5 7 5 7 8 6 6 6 7 8 7 10 8 6 7 6 8 7 5 0 4 6 9 14 12 14 16 18 11 15 16 15 13 10 7 6 3 6 3 4 6 6 6 6
7 8 5 6 6 7 9 10 11 9 5 6 10 10 10 9 8 6 2 3 6 9 14 14 13 19 18 17 14 17 16 19 17 7 7 5 6 6 5 6 7 6 8 7
8 6 7 4 5 6 8 8 6 8 12 11 12 14 12 7 7 3 2 6 8 12 13 14 18 20 19 16 15 14 17 19 14 9 8 8 8 9 7 8 7 5 5 6
6 6 1 4 5 6 8 11 20 18 17 18 13 11 10 7 5 1 6 8 10 12 14 15 17 16 18 17 14 16 16 16 14 11 11 14 11 11 10 7 7 7 6 6
6 7 4 5 8 9 18 19 14 10 11 9 9 9 6 5 1 6 8 9 11 13 15 14 16 21 19 18 17 18 17 14 13 10 13 12 10 12 11 9 8 9 9 8
1 2 5 7 11 13 14 12 13 7 6 6 6 5 3 1 4 6 7 10 11 13 15 17 18 20 20 18 19 18 18 15 12 10 8 11 12 12 14 11 9 10 12 10
5 5 8 11 12 12 12 9 7 7 8 7 5 3 0 3 5 6 8 9 10 12 16 18 20 18 20 19 20 16 19 15 14 11 12 14 13 15 16 13 11 12 13 11
12 16 15 15 12 11 5 9 5 4 4 4 5 2 3 5 8 10 8 10 12 14 17 17 15 19 18 22 21 20 22 20 15 15 15 14 13 13 13 15 18 14 11 10
23 19 18 16 12 9 5 3 3 4 3 2 3 5 8 11 11 12 11 13 17 20 23 15 17 18 21 21 18 24 23 22 19 18 16 16 16 15 15 17 16 18 15 14
16 11 9 7 5 3 3 1 1 3 4 5 8 11 12 14 12 13 13 16 18 20 18 14 16 22 23 23 21 22 21 18 18 17 17 16 17 19 18 16 18 19 20 18
8 8 6 4 3 3 5 5 6 8 7 8 10 12 14 16 16 14 15 14 21 17 17 19 20 22 21 22 23 23 21 17 19 19 19 22 23 22 23 21 21 21 20 21
5 6 5 3 2 4 3 6 8 9 10 11 12 12 14 19 20 17 16 17 20 17 19 21 22 22 20 21 24 22 21 20 19 21 23 24 25 26 28 27 24 24 22 22
2 1 2 3 4 6 9 9 8 9 11 13 15 17 19 21 18 13 10 14 15 18 20 19 20 21 19 21 21 21 20 20 22 25 28 28 29 30 31 30 29 26 25 23
7 9 9 8 9 10 10 12 12 13 14 16 17 17 17 19 17 16 16 16 15 18 19 19 18 20 20 21 18 18 22 23 22 24 26 28 30 29 31 32 31 31 30 28
6 7 9 10 11 13 15 18 18 19 19 20 20 17 17 17 18 21 18 18 18 17 16 14 14 16 19 19 20 21 21 22 23 24 26 26 28 28 29 29 30 31 31 31
10 12 14 14 14 17 20 21 20 22 21 22 22 20 21 20 21 22 22 20 16 12 10 11 13 14 14 16 19 21 22 24 25 26 27 29 29 29 29 30 30 30 30 27
16 20 21 19 20 22 23 24 17 17 18 18 23 25 21 21 20 19 18 18 10 8 8 10 14 16 14 14 15 17 20 22 23 24 26 30 29 28 28 30 31 29 28 24

GFSNGP_925_spd_018.txt.gz
Wind_Speed
1 3 2 2 4 6 7 5 6 5 7 7 12 13 10 8 8 8 7 7 6 4 5 7 10 10 9 4 4 8 12 13 15 13 12 14 15 18 20 18 18 17 15 10
1 3 5 4 6 6 5 4 7 5 11 8 2 7 8 11 11 8 7 7 6 7 7 12 13 10 7 5 9 12 15 17 16 13 14 15 17 20 19 18 16 14 13 12
4 3 5 6 9 11 6 5 7 7 9 5 5 8 11 11 9 9 7 7 7 8 10 10 10 8 5 8 12 15 16 18 15 13 15 18 18 19 19 16 12 9 8 1
2 3 2 6 2 3 8 4 8 3 4 6 2 2 5 6 9 8 8 7 7 8 7 5 7 4 6 12 14 13 13 14 13 14 16 19 19 19 20 17 12 10 2 1
4 3 6 5 5 7 8 8 9 7 4 5 4 4 3 7 6 7 7 11 7 6 5 5 4 5 8 9 10 11 13 13 13 14 18 19 17 19 20 10 4 4 3 4
2 3 6 6 3 3 3 5 7 8 8 8 6 3 7 9 7 9 10 8 8 8 8 4 2 3 7 11 11 13 12 13 17 19 18 16 17 18 10 7 6 7 4 4
3 3 8 8 4 1 5 7 5 8 7 8 6 7 3 7 7 10 11 11 11 10 6 1 0 6 10 10 11 11 14 19 22 21 15 14 16 15 14 10 8 6 3 5
3 2 8 6 4 7 6 2 5 7 8 13 7 7 5 6 7 13 16 15 10 7 3 1 4 8 8 8 11 16 18 19 23 17 11 13 14 12 7 7 7 4 5 6
9 6 4 6 5 4 2 3 6 7 8 13 8 6 7 6 6 11 16 12 7 4 0 3 7 8 7 11 17 17 14 18 19 11 9 12 12 10 9 8 6 5 8 8
2 4 7 9 7 6 5 7 4 5 5 10 8 9 8 9 10 11 9 8 4 0 3 7 10 8 9 15 17 15 12 15 16 14 13 11 10 11 11 8 6 8 9 10
5 9 6 9 8 10 8 5 6 5 7 9 8 8 10 8 9 12 10 5 1 3 5 10 10 10 14 16 15 14 15 16 17 17 16 9 8 7 8 8 9 11 11 10
6 9 5 7 5 2 6 9 9 8 6 6 10 10 14 7 11 11 7 2 1 3 7 10 12 15 17 16 12 13 14 15 18 17 11 9 8 9 10 9 9 11 12 12
7 2 6 6 4 3 5 3 5 7 10 12 17 19 14 7 10 9 5 2 2 6 9 12 15 17 16 13 12 13 13 17 18 17 12 12 13 13 14 11 10 9 10 10
7 2 5 4 5 4 7 11 18 20 20 19 22 16 13 11 10 7 4 3 4 7 10 13 15 16 16 14 15 14 15 17 19 16 15 13 15 18 13 15 15 11 9 10
7 7 3 2 6 6 13 16 14 12 11 15 10 11 10 8 7 6 4 3 4 8 12 12 14 16 12 15 16 15 18 18 18 17 15 13 15 13 12 16 17 14 12 11
5 4 5 8 10 11 12 14 15 11 9 5 8 7 8 7 7 5 3 3 5 9 10 11 14 15 16 15 18 18 20 17 17 17 17 13 14 15 16 17 19 17 15 16
2 5 10 11 12 14 13 12 10 8 8 7 8 8 7 6 4 4 5 6 7 9 12 16 20 16 15 16 16 21 23 19 20 20 18 15 15 18 18 18 20 20 18 15
17 18 17 14 12 11 7 8 3 5 8 8 8 8 7 6 7 7 8 9 12 14 17 16 12 12 13 16 19 20 18 22 23 22 21 18 17 19 19 19 17 20 21 19
23 19 19 16 12 8 5 6 4 5 4 4 7 9 8 9 9 11 12 14 19 21 17 14 13 14 15 19 20 20 21 22 22 22 21 21 19 19 20 20 21 22 22 21
15 15 14 8 4 0 4 4 4 4 4 6 8 8 10 14 14 15 16 21 23 20 15 15 15 18 21 23 20 19 22 22 23 21 18 20 19 19 21 22 23 23 23 25
4 3 3 4 3 1 1 3 4 5 5 6 9 12 15 17 19 18 17 14 23 13 13 15 17 19 19 20 18 21 21 20 22 21 20 19 21 23 25 27 28 28 28 28
2 3 4 5 6 7 7 8 9 10 11 12 13 14 16 19 19 17 17 20 24 13 13 15 17 16 18 19 19 19 19 19 21 21 20 21 24 26 28 29 29 30 30 31
6 5 5 6 7 7 10 9 7 8 11 13 14 16 17 21 21 16 13 20 12 14 15 16 18 17 17 17 17 18 19 18 18 18 19 22 24 24 24 25 26 28 28 30
3 6 7 8 9 13 15 19 19 19 19 19 20 21 22 23 25 20 21 21 18 18 20 20 15 12 12 15 17 16 17 17 18 18 21 23 24 25 25 25 27 28 29 29
12 13 16 18 16 13 17 21 22 22 25 26 25 24 23 21 21 28 25 22 22 23 22 16 11 12 12 12 13 15 16 16 17 20 21 23 25 25 26 28 28 28 28 29
15 14 14 13 13 14 15 16 15 16 18 20 21 20 25 27 27 26 23 23 22 21 19 13 10 10 13 13 11 11 12 14 16 18 20 23 25 25 26 29 28 29 29 30
10 13 12 12 15 16 19 19 19 20 21 22 25 26 23 26 26 25 25 25 16 18 11 8 6 9 9 9 10 11 12 14 16 19 22 24 27 29 30 31 29 28 29 29

GFSNGP_925_spd_021.txt.gz
Wind_Speed
1 1 2 2 4 9 8 4 6 3 8 7 10 12 12 9 11 14 14 13 11 9 10 9 11 11 9 12 8 6 10 14 15 15 14 12 13 16 19 19 16 15 11 10
4 0 2 3 6 8 8 4 11 6 15 11 2 5 9 13 15 16 15 13 11 10 12 12 15 14 13 10 6 7 11 14 15 14 12 12 15 18 18 17 15 12 8 8
3 3 2 5 10 12 6 6 9 11 10 5 5 9 12 15 17 17 16 14 12 13 16 14 12 13 11 7 5 10 12 11 12 11 12 14 17 17 15 14 14 10 9 3
1 2 2 4 2 3 12 8 14 6 4 5 3 3 5 11 16 15 14 13 12 15 12 9 10 11 8 4 7 8 9 11 12 12 14 16 17 14 14 16 11 7 4 4
3 3 6 5 4 6 7 6 11 15 7 3 3 1 4 10 13 16 15 15 14 14 11 11 12 8 4 3 6 8 10 11 11 13 16 16 14 12 14 13 7 5 5 6
3 3 5 5 1 3 3 4 2 7 7 7 8 2 5 12 12 12 14 14 14 14 16 16 9 5 2 4 7 7 9 10 14 16 17 16 12 11 13 10 8 7 6 5
2 3 7 6 1 1 2 5 1 5 6 11 6 6 1 8 10 13 11 11 14 17 14 10 8 3 2 5 5 7 10 14 14 15 16 11 10 12 12 9 7 8 7 5
3 1 6 5 3 4 4 2 3 5 8 13 11 4 3 7 11 16 18 22 21 14 11 9 4 2 4 6 6 10 13 12 11 16 13 9 10 11 10 7 6 7 7 7
8 5 3 6 5 2 2 3 2 4 6 9 5 8 10 9 11 16 21 17 12 12 9 5 2 3 5 5 9 12 12 9 10 12 12 10 11 11 8 7 8 7 7 7
1 3 8 10 8 8 7 10 6 7 7 8 11 9 7 10 11 14 14 13 12 10 4 3 3 4 5 7 10 12 11 10 12 12 15 14 13 10 9 8 9 8 8 9
4 9 5 8 9 11 10 7 9 6 6 9 10 11 13 13 12 15 12 11 10 6 5 3 4 5 7 10 12 10 9 10 12 11 14 14 11 9 8 8 8 9 11 10
5 8 4 6 4 3 5 5 6 6 2 3 9 13 19 11 17 18 13 8 7 7 4 3 5 7 9 10 8 7 8 10 11 12 13 11 9 9 11 11 12 11 12 13
5 3 4 7 8 4 6 5 2 3 6 10 13 19 17 10 9 10 9 8 6 4 3 5 6 9 8 8 6 9 10 12 13 14 14 12 11 11 13 11 13 14 12 12
5 5 4 3 5 7 9 14 21 22 22 22 22 17 16 11 8 9 8 6 5 4 5 6 7 7 5 5 9 12 13 15 15 15 13 12 13 13 12 14 11 11 12 13
13 7 2 6 11 12 16 18 18 15 16 18 17 12 10 6 8 8 6 5 5 6 7 6 6 7 7 10 13 14 14 13 16 17 16 15 14 13 12 11 12 13 12 14
9 12 14 16 15 15 16 15 15 12 11 10 8 5 9 9 7 8 7 8 8 9 5 6 10 11 12 13 13 13 13 18 22 18 15 15 14 14 12 12 13 14 15 16
4 8 12 12 13 14 14 13 11 9 6 7 14 7 7 6 7 9 10 11 13 12 10 11 13 15 14 12 12 12 14 15 18 15 20 17 16 15 13 13 15 16 17 17
18 17 16 13 11 10 7 9 12 10 6 6 8 7 6 6 9 12 11 11 14 16 16 16 15 16 14 14 14 17 18 18 16 17 19 16 15 16 15 15 16 17 17 16
18 15 14 14 12 10 5 2 3 5 5 5 3 5 8 12 12 14 13 14 17 19 23 18 15 16 17 20 21 24 20 18 15 16 17 17 15 16 16 16 16 17 17 17
7 7 7 5 5 6 6 6 5 5 5 5 6 8 11 15 14 13 13 16 20 22 24 23 19 17 17 18 17 16 16 17 15 16 16 16 15 15 17 21 20 19 19 21
4 5 5 5 6 6 7 8 8 8 8 8 9 13 15 17 17 15 13 12 25 25 20 15 15 15 16 15 16 15 16 16 17 17 16 16 15 15 17 19 20 20 22 23
3 4 6 7 8 9 12 11 11 13 14 15 15 16 19 21 23 25 23 20 27 21 16 16 16 15 16 17 14 15 17 19 18 15 14 15 14 15 15 17 18 20 21 21
8 9 11 12 12 10 12 17 19 18 18 19 19 20 20 20 18 16 16 18 18 22 19 20 20 21 19 14 14 13 16 17 15 13 14 15 16 17 19 20 20 21 22 22
10 13 12 11 12 17 16 18 19 17 19 17 16 20 21 21 22 14 21 27 28 27 25 23 23 19 16 14 11 10 14 15 16 16 17 18 17 17 19 21 22 24 25 25
12 11 13 15 14 13 14 17 16 17 19 20 20 20 20 21 23 29 26 27 26 25 25 23 20 20 16 11 9 10 9 8 9 11 12 13 13 15 17 18 21 22 27 27
13 12 10 11 10 11 14 15 15 17 19 19 20 22 24 25 25 26 27 28 28 26 25 20 13 10 7 6 5 4 5 7 9 10 12 13 15 17 19 23 26 27 29 27
10 10 9 8 9 11 13 15 16 18 18 19 22 24 26 27 27 26 26 28 27 27 18 8 5 3 2 3 4 5 5 7 9 11 13 15 17 18 22 25 29 29 29 31

GFSNGP_925_spd_024.txt.gz
Wind_Speed
2 1 3 4 7 13 16 13 7 9 11 10 6 8 9 9 13 15 16 17 18 18 19 19 18 18 16 13 12 11 9 8 10 10 11 12 11 12 14 16 15 15 14 13
3 2 3 7 10 12 15 16 14 19 19 15 9 7 8 10 12 16 17 17 18 18 20 20 20 20 15 13 12 10 8 9 9 9 10 11 11 13 16 16 15 14 14 11
2 2 3 6 15 17 12 12 14 14 16 7 5 8 9 10 13 15 16 17 18 18 20 19 20 16 13 14 11 8 8 7 8 9 10 11 12 15 16 15 14 14 12 9
0 1 3 1 1 3 12 16 15 18 16 9 7 2 5 7 11 14 15 16 17 19 18 17 14 13 14 12 9 7 6 8 9 9 10 12 14 16 15 14 14 14 11 8
2 4 7 12 3 3 5 6 5 12 12 8 4 4 11 9 10 11 13 16 19 18 17 15 14 14 13 10 8 6 7 8 9 9 12 14 16 15 14 13 13 11 11 9
3 3 4 3 4 1 3 5 5 4 4 6 7 4 5 5 8 8 12 15 15 15 15 15 12 12 10 7 5 7 7 8 9 12 14 15 16 13 12 12 11 11 11 10
4 4 6 1 2 3 3 3 5 4 4 8 7 7 2 2 8 12 15 17 19 19 17 17 14 8 7 5 6 6 7 9 11 12 13 14 13 11 12 12 11 10 9 10
3 3 5 5 6 3 4 4 6 7 6 9 10 4 4 4 10 13 16 14 15 19 20 14 9 9 6 5 4 5 8 11 11 11 11 12 12 12 12 11 10 9 10 10
6 2 3 7 6 3 4 8 10 8 9 9 11 9 7 6 7 10 15 17 16 8 12 7 5 3 4 2 3 7 10 12 12 12 12 11 13 14 14 12 11 11 12 13
2 2 7 8 10 11 10 11 12 12 12 11 13 11 9 8 10 14 16 18 18 15 11 9 6 2 4 3 6 9 12 13 12 12 12 14 13 12 12 12 11 11 12 12
5 11 8 8 5 5 8 9 11 11 9 10 10 10 7 7 9 13 13 11 11 9 6 5 4 4 4 5 7 11 12 11 11 11 13 14 13 11 12 12 11 11 11 11
4 8 5 8 9 13 10 11 11 10 9 6 6 1 6 8 12 15 15 11 7 4 2 2 4 4 5 6 7 8 10 10 10 12 14 14 14 14 14 14 15 16 15 13
5 13 11 11 5 11 9 10 10 10 10 9 12 13 18 16 15 11 8 4 2 5 3 4 5 6 6 6 6 8 10 12 12 13 14 14 14 14 15 13 15 19 20 18
9 11 2 11 5 9 11 14 19 21 21 21 21 21 20 16 11 5 2 4 5 5 6 6 6 7 6 6 8 10 11 13 13 14 14 16 15 16 17 17 14 14 16 17
11 8 6 7 10 11 14 16 16 15 16 17 17 15 11 7 4 6 5 6 7 8 8 8 7 8 7 9 11 12 12 13 13 15 18 19 17 17 18 18 14 15 14 12
6 9 11 13 13 14 15 14 13 9 9 9 9 8 7 5 6 8 8 8 8 9 8 9 12 12 10 12 14 13 13 12 12 16 19 20 16 18 18 19 15 15 14 15
6 9 9 11 11 12 10 10 10 8 6 2 1 5 6 6 6 7 8 10 14 17 18 17 20 14 14 14 14 15 15 15 15 17 18 19 19 19 19 20 16 15 16 16
16 14 15 13 10 9 6 5 5 6 5 6 8 7 5 6 8 10 13 14 15 19 21 23 24 21 18 15 15 17 18 18 19 19 17 18 20 19 18 19 18 17 16 17
16 14 12 9 7 7 6 5 6 6 7 7 7 7 8 11 11 13 15 16 18 17 20 18 19 19 17 16 14 15 18 19 20 21 18 18 20 19 19 19 19 18 18 18
9 7 6 7 7 7 7 7 8 8 8 8 9 10 12 15 15 17 17 15 19 20 20 20 19 18 18 15 15 15 17 17 19 20 21 19 19 19 18 19 19 20 20 21
6 7 7 7 7 9 10 10 11 10 10 13 12 12 13 19 20 18 15 18 20 20 21 22 19 17 15 15 14 15 16 17 20 21 22 19 17 17 16 16 17 18 20 21
5 6 7 7 7 9 11 11 12 13 14 15 14 14 16 17 18 19 17 20 22 21 22 21 21 22 19 19 17 19 17 17 18 21 20 15 13 14 14 15 16 16 18 20
7 7 9 11 10 8 8 12 14 13 14 14 15 16 18 18 17 18 18 20 23 26 28 27 28 28 28 24 20 19 19 17 13 13 11 12 13 16 18 19 19 19 20 21
10 10 8 7 6 9 12 14 14 13 14 15 15 17 18 22 21 19 23 27 28 29 30 30 30 29 28 21 19 17 11 9 8 9 8 9 9 11 13 14 16 17 19 20
8 7 8 7 8 9 10 12 12 13 15 16 16 18 19 19 22 28 28 28 28 29 30 31 31 27 21 11 6 6 4 3 4 6 7 8 9 11 13 14 16 18 20 21
7 7 7 8 8 9 9 11 12 14 16 17 17 19 20 22 23 25 27 27 28 28 24 18 14 11 9 8 7 7 5 5 5 6 8 9 11 12 14 16 17 18 20 23
8 7 6 6 7 9 10 11 12 14 15 16 19 19 20 22 23 24 23 23 22 20 17 15 14 14 12 10 9 9 9 8 9 9 10 11 12 13 15 17 18 19 21 23

GFSNGP_925_spd_027.txt.gz
Wind_Speed
14 5 6 8 8 12 17 16 12 12 14 10 9 7 8 7 10 13 14 15 16 16 17 23 23 23 23 20 16 15 14 16 14 10 10 12 13 13 14 13 16 16 16 16
6 7 7 10 12 14 14 16 17 18 17 15 8 10 6 9 8 11 12 15 16 17 20 23 24 22 22 19 17 15 15 16 11 9 11 12 12 12 14 15 16 16 16 16
4 3 5 6 17 18 17 16 12 15 16 14 8 6 8 8 7 10 10 13 15 17 20 23 22 22 23 19 16 17 15 13 10 9 11 11 12 13 15 16 15 16 16 12
0 1 1 2 2 4 6 12 14 13 14 12 11 6 8 7 8 8 10 12 13 16 19 21 19 21 19 16 15 14 13 10 8 9 10 11 12 15 16 17 16 16 15 10
2 6 9 12 5 1 2 5 8 7 9 10 7 5 13 10 4 6 9 9 12 15 17 17 17 18 17 15 13 10 9 8 8 8 9 11 14 16 16 16 15 14 14 9
3 3 4 4 4 1 1 5 7 8 9 8 2 6 6 3 2 4 7 8 11 13 14 14 16 16 16 14 12 9 5 6 6 8 12 14 15 16 16 15 15 13 12 10
5 3 6 3 3 2 5 3 8 9 9 7 7 6 8 8 7 8 8 8 9 10 12 12 13 10 7 2 2 4 2 5 8 11 12 13 14 14 15 15 14 12 10 9
3 3 5 6 6 2 5 6 9 9 9 8 10 12 11 9 10 6 6 4 4 6 8 10 10 9 5 1 4 3 6 8 11 12 12 13 13 14 15 16 14 11 10 9
6 2 4 5 5 5 4 7 8 9 10 11 12 13 14 10 8 5 5 5 7 10 14 12 11 7 2 3 3 4 9 11 12 13 13 14 13 15 16 15 15 12 10 11
1 2 3 4 5 3 4 7 10 11 12 12 13 12 11 9 2 0 4 8 11 13 11 10 5 3 2 1 4 8 11 12 12 12 12 13 15 15 10 12 14 12 11 12
6 9 6 5 4 7 10 10 10 10 10 9 11 12 10 3 4 10 15 13 12 11 5 4 1 1 1 4 6 10 11 12 12 11 12 15 16 15 11 12 15 13 12 10
3 6 5 8 12 10 8 10 9 9 9 11 10 8 8 11 15 15 14 12 10 8 4 2 3 5 5 6 8 9 10 9 10 12 13 15 16 15 16 16 18 19 19 17
4 8 8 6 11 11 10 11 12 12 13 12 18 17 19 18 17 14 11 8 4 1 6 8 8 7 7 7 7 7 8 10 12 13 15 15 15 15 16 17 15 19 19 21
6 8 5 10 6 9 12 15 18 19 19 19 19 18 16 14 11 8 5 5 6 7 7 8 8 10 9 8 8 9 11 13 14 15 14 16 16 18 19 20 18 16 18 17
6 6 6 8 12 12 14 14 14 13 13 13 12 12 10 8 6 4 2 5 6 8 10 11 12 12 10 10 11 13 14 15 14 14 16 18 20 20 19 19 18 19 18 14
7 11 12 12 12 11 12 11 11 8 8 9 8 5 4 4 6 7 7 6 8 11 12 13 15 16 14 15 16 17 18 17 18 16 17 17 17 18 18 19 19 19 19 16
10 8 10 11 11 10 10 8 9 9 8 9 9 9 9 9 8 6 8 9 12 18 20 19 23 20 19 19 20 21 21 19 18 17 18 20 20 18 18 19 19 18 20 16
15 12 13 12 9 7 7 8 7 8 8 8 8 8 8 7 8 11 12 16 20 22 22 19 20 19 19 21 23 23 21 18 17 18 21 22 23 20 18 19 20 20 19 18
16 13 11 9 8 8 7 8 8 7 7 8 9 8 9 10 10 13 16 17 18 18 18 18 19 20 21 23 23 23 22 20 18 19 21 23 23 20 20 19 19 20 20 20
10 9 9 9 10 9 8 8 7 8 9 11 12 11 12 13 17 16 16 15 18 18 19 20 22 24 25 24 25 23 22 22 17 16 19 23 23 22 21 20 20 19 19 20
9 9 9 9 10 11 12 10 11 10 9 12 12 12 13 15 14 17 18 19 21 20 25 27 26 27 29 30 33 30 25 21 18 19 19 19 21 21 19 17 16 16 17 17
9 9 9 7 8 9 9 9 9 9 11 12 12 13 15 17 18 16 16 19 23 27 28 28 29 28 32 35 30 29 27 24 22 19 16 13 12 12 11 12 12 14 16 17
9 10 10 9 8 6 7 9 9 8 10 12 13 15 16 17 18 21 19 23 27 28 30 28 29 33 34 34 31 30 28 27 22 18 6 7 9 11 10 10 11 12 14 17
9 8 7 7 6 6 5 8 9 8 10 12 12 14 15 18 18 18 22 27 28 30 30 29 24 27 29 27 22 19 17 11 7 6 4 5 6 8 9 10 11 13 15 17
8 8 7 4 3 5 6 9 10 10 12 13 13 13 15 16 18 22 23 24 25 25 26 26 25 27 23 22 19 17 16 14 13 11 11 9 9 9 10 12 13 15 17 17
6 5 5 6 6 7 8 9 10 10 12 12 13 14 15 16 17 18 19 19 20 21 21 22 22 23 21 20 18 17 16 15 14 13 12 12 12 12 13 14 15 16 17 19
8 5 3 3 6 7 8 9 10 10 11 12 14 14 16 16 16 17 17 18 19 19 19 19 19 19 19 18 17 16 15 15 15 15 14 14 14 14 15 16 17 18 20 23

GFSNGP_925_spd_030.txt.gz
Wind_Speed
14 16 1 10 8 8 12 11 10 10 13 11 10 9 10 4 3 6 7 9 10 9 10 19 21 21 21 22 20 16 15 18 15 18 4 8 6 8 10 10 11 12 15 15
8 9 10 12 13 12 14 13 12 15 13 10 7 6 7 8 6 5 5 9 5 6 7 15 20 22 21 21 22 17 16 18 9 7 11 3 6 8 10 13 14 13 13 14
2 6 7 6 10 16 15 14 11 11 9 8 11 10 7 5 6 4 4 7 7 4 6 11 16 22 22 22 19 17 15 12 18 6 5 5 6 9 11 14 14 14 15 13
0 2 1 8 4 5 5 7 9 9 10 12 13 10 7 7 4 5 7 3 4 6 9 8 7 18 17 17 16 14 14 7 10 1 4 7 6 10 13 14 14 14 12 11
2 4 7 11 1 2 2 3 11 10 10 10 9 8 5 7 8 7 7 8 11 9 5 2 7 18 16 15 11 13 6 2 8 6 6 8 10 12 13 14 16 14 13 14
3 2 4 0 5 2 2 2 8 8 7 8 9 4 4 10 9 4 9 7 9 8 3 4 13 14 13 13 16 13 10 8 10 9 8 11 12 12 15 16 15 14 8 6
3 2 6 2 5 1 2 3 3 5 6 7 6 7 5 4 5 13 11 9 10 12 18 19 16 18 20 18 18 11 6 4 8 11 12 11 13 12 14 15 16 17 12 11
2 2 6 5 5 1 4 4 7 6 7 6 6 7 8 9 10 6 10 16 18 27 27 28 24 24 22 20 12 9 7 12 12 13 14 15 14 16 13 14 15 10 11 10
7 4 4 4 4 3 5 3 4 6 8 9 9 9 10 9 8 8 11 17 25 24 24 23 20 19 18 12 6 3 8 9 11 13 14 15 14 11 17 18 12 14 12 11
2 3 5 4 2 3 8 9 9 9 9 10 9 10 10 8 9 12 23 20 21 20 17 15 13 12 9 4 5 8 10 12 13 14 12 12 15 16 17 10 8 13 14 14
5 6 4 9 13 11 9 11 12 11 12 13 10 10 13 15 15 20 21 20 19 16 14 9 6 5 5 7 7 8 10 12 12 12 14 14 14 16 11 12 13 14 16 16
1 8 3 10 11 10 12 11 12 11 14 16 17 15 18 13 18 16 16 15 13 10 8 6 5 6 6 6 8 10 11 11 11 12 14 15 16 15 17 19 19 19 21 22
4 5 3 12 12 15 14 12 12 13 15 12 15 15 16 14 13 12 11 8 5 2 1 4 6 8 9 9 10 12 13 12 14 14 14 14 15 18 18 19 18 20 20 22
5 2 9 7 10 14 14 14 16 17 16 16 16 15 13 12 8 7 5 3 3 5 6 8 9 11 11 12 12 15 14 15 19 20 14 12 15 17 19 19 20 20 19 19
6 9 15 14 14 12 14 14 13 12 12 12 12 10 8 6 5 3 3 4 5 8 9 11 12 13 13 14 13 17 20 21 21 20 21 21 19 20 21 21 20 21 20 21
12 13 12 13 12 12 12 11 11 8 8 12 12 13 11 10 10 9 8 9 9 11 15 18 20 22 18 18 20 22 22 23 23 24 21 18 19 19 20 20 19 19 18 20
11 9 10 11 11 10 10 11 12 11 12 11 10 8 9 10 9 13 12 13 15 17 20 20 21 19 20 18 20 23 25 26 27 25 21 20 20 21 21 20 19 17 20 21
12 11 11 11 9 9 8 11 10 11 10 8 8 8 9 10 9 12 16 18 20 19 19 17 18 22 20 21 24 26 27 27 27 24 22 19 19 19 21 20 20 17 20 21
17 14 13 13 12 11 12 10 9 13 12 11 9 10 10 10 12 12 16 16 17 16 18 23 28 28 25 26 28 27 28 28 28 26 26 24 19 19 19 19 19 19 20 19
14 15 16 15 14 14 12 10 12 14 12 13 12 13 12 13 12 16 15 14 15 19 25 26 28 26 27 26 29 30 31 29 27 29 33 22 16 20 17 19 19 20 17 15
13 14 14 14 14 15 14 12 12 11 11 14 13 13 14 15 17 19 16 14 19 28 27 29 27 26 27 30 33 30 30 31 28 26 26 16 17 13 10 11 9 9 9 10
12 11 12 14 13 13 11 10 11 12 12 13 12 15 16 15 16 15 15 18 24 26 28 26 23 28 33 34 28 27 33 30 26 27 26 27 20 8 4 7 9 9 11 11
13 12 11 12 11 11 11 10 8 12 13 10 11 14 14 13 14 16 14 21 22 27 24 23 30 34 30 26 27 28 29 25 28 29 29 24 16 11 9 9 9 10 12 14
13 12 11 10 10 8 8 9 7 7 10 10 11 13 14 13 13 14 18 19 22 23 22 23 27 30 26 26 26 26 26 25 27 26 25 23 22 19 17 16 15 15 15 18
12 10 8 6 7 8 7 7 6 8 9 9 10 10 12 12 12 15 17 17 19 21 21 22 23 25 25 25 24 24 24 23 24 23 24 23 22 21 20 19 18 19 19 19
9 10 10 10 8 7 6 7 7 8 9 9 10 12 12 11 12 15 15 18 18 20 19 20 21 22 22 23 22 22 22 22 23 23 22 21 21 21 20 21 21 21 21 22
10 7 6 8 8 7 7 7 8 8 9 7 10 13 13 11 13 13 16 17 18 18 19 19 20 21 20 21 21 21 21 21 21 21 22 21 21 21 22 22 22 22 23 22

GFSNGP_925_spd_033.txt.gz
Wind_Speed
5 6 4 4 5 5 5 6 7 8 6 11 1 7 6 4 2 1 5 4 6 11 11 21 23 25 28 28 35 35 30 23 16 11 4 12 3 5 10 8 8 12 14 17
2 6 7 4 5 8 6 5 1 5 6 6 4 6 8 7 8 6 7 7 8 5 9 17 22 28 28 31 36 38 31 21 14 16 8 4 7 5 9 14 13 14 15 16
3 4 6 6 6 7 5 4 4 4 4 8 10 8 6 6 7 9 7 7 7 6 4 16 24 31 29 29 30 26 19 15 10 3 3 7 2 7 10 12 15 17 18 17
3 3 1 8 1 5 6 6 8 9 7 8 6 8 11 9 9 8 7 8 8 10 10 4 21 24 28 31 29 23 15 13 12 13 9 5 8 6 13 13 14 17 19 18
4 3 5 6 3 2 4 4 5 8 8 7 7 6 8 8 8 6 6 5 8 11 10 13 19 25 28 27 24 21 19 18 14 10 11 6 5 10 13 16 17 19 19 18
2 4 6 6 3 4 3 1 4 8 7 7 7 4 3 4 5 7 18 22 24 27 28 29 26 32 32 26 27 24 21 18 15 11 7 8 10 12 11 18 20 19 13 14
2 2 7 5 5 1 6 6 5 6 5 6 3 4 4 5 5 18 21 23 27 33 29 25 27 34 30 28 25 23 21 15 8 2 8 11 11 14 14 18 19 18 18 10
3 2 6 6 3 6 5 3 6 5 5 6 4 6 7 7 8 16 21 25 25 29 27 26 27 31 26 24 19 14 9 6 4 7 8 10 13 18 21 18 15 19 16 16
7 6 7 3 7 5 8 7 5 7 8 7 8 7 10 14 15 17 21 22 23 25 23 21 21 20 19 12 3 2 2 3 6 8 11 12 15 13 15 18 20 23 17 17
5 2 2 7 12 11 12 11 12 12 10 8 9 13 14 12 12 17 19 18 18 20 18 15 12 11 10 7 5 3 4 8 9 12 15 11 13 16 16 19 13 15 17 19
2 8 13 10 9 11 13 13 16 16 15 13 15 13 12 11 10 14 15 14 14 14 13 11 10 7 5 3 5 8 8 10 12 13 15 16 16 16 17 13 17 21 22 22
4 2 10 6 10 13 16 13 13 14 14 15 15 11 12 9 12 12 13 14 15 13 11 7 4 4 6 8 9 10 12 13 15 16 16 17 18 19 15 20 21 19 22 25
5 9 15 15 14 14 15 13 13 14 15 13 17 17 16 14 16 16 13 11 10 6 4 4 6 9 10 10 12 15 17 18 17 17 18 19 19 21 21 24 21 22 23 23
6 14 10 5 9 13 15 19 22 21 19 18 16 17 16 13 11 9 7 6 7 8 8 9 10 11 12 14 18 19 19 20 22 24 24 27 26 26 26 23 25 26 27 23
14 14 15 15 15 13 18 17 13 11 10 11 11 10 8 6 7 11 12 11 10 10 13 16 18 20 19 17 18 20 22 25 27 31 33 34 32 31 31 27 27 29 30 27
14 14 13 14 13 13 11 9 10 9 10 12 14 16 15 16 17 17 17 18 16 13 15 16 20 22 22 21 22 23 23 25 27 30 31 29 30 31 28 27 26 24 25 28
15 9 11 11 9 10 12 12 13 12 14 14 12 11 15 15 16 17 16 16 13 12 16 17 21 23 23 21 21 23 24 23 25 26 27 28 29 25 24 25 25 23 26 27
12 10 10 12 13 12 11 15 16 16 13 11 11 12 13 14 11 10 14 15 15 14 20 21 25 26 25 24 24 23 25 26 27 27 28 28 28 29 27 29 27 21 25 25
17 13 16 17 20 18 15 16 17 16 13 13 15 13 11 11 11 13 12 16 19 17 18 24 25 21 21 23 30 31 28 28 29 30 28 28 28 28 29 31 20 16 20 24
19 22 22 20 22 20 17 19 20 19 16 15 15 15 13 14 14 14 12 16 16 17 23 23 17 24 30 32 29 26 24 24 26 30 31 29 27 27 26 16 15 13 15 15
16 18 18 19 18 21 20 19 18 15 15 15 16 13 12 12 13 14 12 10 13 21 20 15 24 30 30 26 24 25 25 26 25 27 27 30 34 30 24 15 6 5 7 9
16 15 17 18 17 17 17 17 17 15 13 13 13 12 11 10 11 10 14 12 14 20 19 19 25 27 27 24 24 25 25 23 26 25 26 27 28 29 29 27 24 20 17 15
14 16 18 19 17 17 15 15 14 14 12 11 12 11 10 9 10 11 8 12 16 18 19 19 22 25 26 24 23 25 24 22 26 25 24 24 25 24 24 25 24 24 23 21
17 17 19 19 20 17 12 9 11 12 11 10 11 11 9 8 7 10 11 12 16 17 18 18 20 21 22 23 22 22 23 22 23 25 23 23 23 22 23 22 22 22 22 23
19 17 17 15 14 13 12 10 12 11 8 8 8 9 10 7 7 10 11 14 15 16 16 17 17 18 19 20 20 20 21 22 21 23 24 24 22 23 23 23 23 24 23 23
17 16 18 19 16 14 11 9 11 10 7 5 7 11 10 6 8 9 11 14 15 14 15 15 16 16 18 18 18 19 19 22 21 20 23 25 21 24 23 24 24 23 24 23
17 17 17 16 14 11 9 8 8 6 7 5 10 9 9 7 8 9 12 15 14 13 15 13 15 17 17 16 18 17 19 22 19 17 23 26 24 22 22 24 23 24 24 24

GFSNGP_925_spd_036.txt.gz
Wind_Speed
4 3 2 3 4 5 5 5 6 9 8 9 4 3 1 5 3 5 4 4 4 5 6 16 19 20 20 28 33 37 34 27 24 22 19 18 11 7 7 3 2 6 8 11
2 3 2 2 4 4 5 3 6 5 3 5 5 5 8 7 8 8 7 6 6 5 9 15 20 24 26 28 27 29 26 22 18 16 8 11 10 2 3 4 5 6 10 14
4 4 3 5 7 7 5 3 5 5 5 3 6 6 5 7 9 8 7 7 7 6 5 14 23 29 29 29 27 27 26 22 21 20 17 10 10 4 6 2 7 11 16 17
3 3 2 7 4 4 9 6 6 9 5 6 9 5 8 5 6 7 6 7 6 8 8 1 12 14 20 24 25 25 20 18 16 17 17 12 10 9 1 7 13 18 16 18
4 3 5 7 4 6 6 0 1 7 5 5 6 5 6 2 6 6 6 7 12 16 19 19 19 23 27 27 27 25 23 22 21 20 19 12 4 8 11 15 11 10 18 18
3 4 7 7 3 5 5 1 5 7 5 4 4 3 3 4 6 8 13 13 16 20 25 26 22 29 32 26 26 24 25 27 24 15 6 6 9 11 12 9 15 15 15 14
2 3 7 8 6 3 6 6 6 7 7 5 4 4 2 10 11 14 16 17 19 24 25 22 25 30 29 25 24 22 16 8 5 6 7 8 8 9 10 12 17 20 18 16
3 3 7 6 4 7 6 3 7 6 5 7 7 8 12 11 11 13 15 18 19 22 22 23 23 25 24 20 14 10 5 1 3 4 7 8 10 10 13 11 11 14 18 20
8 6 4 4 3 5 6 7 4 7 5 9 8 9 10 11 11 13 15 16 17 19 20 18 17 16 18 11 6 5 3 2 3 6 8 8 11 13 12 15 16 17 17 17
4 5 5 7 8 7 7 11 7 6 8 11 13 10 12 11 9 11 12 14 13 16 17 17 15 13 11 7 4 1 3 6 7 9 11 10 10 15 16 16 17 15 15 19
4 1 10 7 7 10 13 12 14 13 12 12 14 12 11 9 10 13 14 15 17 16 15 13 9 8 6 5 6 8 8 10 11 12 14 16 18 18 18 18 18 18 21 23
5 11 5 4 5 7 12 11 11 15 14 13 15 13 15 10 14 15 14 15 15 13 12 9 8 9 10 10 10 12 14 16 18 19 20 21 22 25 22 23 23 24 23 22
6 6 13 13 10 9 13 12 13 14 15 14 15 18 17 13 15 16 15 14 12 10 10 10 11 13 14 14 14 16 19 21 22 23 24 26 27 28 27 35 31 31 28 26
19 18 10 4 8 12 16 19 22 21 19 18 17 18 18 14 13 13 13 12 13 13 14 14 16 19 19 18 16 16 18 19 22 26 29 30 30 29 27 26 27 28 33 32
7 9 14 17 16 14 19 19 15 12 11 13 16 15 17 17 16 15 14 12 13 15 16 15 17 20 21 21 21 19 20 21 22 22 22 24 26 26 26 27 27 28 29 31
15 17 16 16 15 13 13 11 13 10 10 12 14 15 16 18 16 15 15 13 14 13 12 15 18 20 21 20 20 20 21 23 26 25 25 25 25 26 26 25 28 27 26 27
17 9 14 14 13 11 10 9 10 11 13 13 13 12 15 16 17 16 14 11 12 15 14 18 20 19 17 17 23 26 27 26 24 22 22 25 27 28 27 26 27 28 29 27
11 11 12 15 15 14 12 15 16 14 14 15 15 15 18 17 11 12 14 14 12 13 20 18 15 16 19 22 23 22 21 22 21 21 23 22 27 28 29 29 29 28 29 28
19 17 19 19 20 19 17 16 16 17 16 17 17 16 13 11 10 11 11 13 15 13 16 12 15 19 20 20 20 19 20 21 21 20 22 25 25 25 29 33 30 31 30 21
19 22 23 20 20 24 19 18 19 18 17 17 17 16 15 14 11 13 14 14 12 12 10 11 17 19 18 18 17 18 18 17 23 21 22 23 23 25 26 30 35 35 28 19
15 20 20 21 19 20 20 22 21 17 15 15 16 15 15 12 11 8 10 8 9 12 8 10 14 18 19 17 16 19 17 19 24 22 21 22 23 23 23 25 26 27 27 25
17 18 18 19 19 17 18 19 21 20 17 16 14 13 12 11 10 12 9 7 6 9 8 11 13 15 17 18 15 19 18 19 22 23 20 22 22 22 23 23 23 24 23 24
17 18 18 17 17 18 19 17 17 16 15 14 12 10 10 9 6 7 3 4 6 8 9 10 12 13 15 17 17 17 18 19 18 21 21 22 20 21 22 22 23 22 23 23
17 17 16 18 21 18 14 13 13 14 15 13 11 8 6 7 5 4 4 4 6 8 9 10 11 12 15 15 17 17 17 19 17 17 21 22 19 22 21 20 22 23 22 23
18 17 19 16 14 11 15 15 15 13 12 9 7 5 4 3 3 4 3 6 8 7 9 8 10 13 15 13 14 14 16 19 17 13 20 23 22 21 20 20 21 21 22 22
17 16 17 17 14 14 13 11 12 9 7 5 6 4 4 5 3 2 5 8 9 7 8 9 11 13 15 11 13 13 15 18 17 14 19 23 23 21 20 20 22 22 22 22
20 20 18 17 14 11 11 9 8 6 5 4 4 3 6 2 1 4 7 11 9 7 8 9 12 13 14 11 11 12 15 17 18 18 21 24 24 22 20 21 22 23 24 24

GFSNGP_925_spd_039.txt.gz
Wind_Speed
3 3 4 5 5 7 6 6 6 8 7 7 4 5 5 6 4 5 5 7 7 6 6 12 11 14 21 25 27 29 31 30 29 26 24 22 19 15 10 12 7 3 2 5
3 3 4 4 6 6 6 3 6 4 6 4 3 3 7 8 8 8 7 6 4 4 8 14 21 22 21 22 25 27 28 26 24 21 21 19 18 15 12 10 5 1 8 15
4 2 3 6 7 8 6 5 6 6 8 3 3 5 6 7 8 7 7 7 7 7 7 4 11 17 19 20 22 24 24 23 23 22 22 20 16 14 10 4 6 14 14 16
3 3 2 7 3 6 5 2 5 4 6 5 5 4 6 4 6 7 6 6 6 7 8 8 6 9 13 15 20 22 22 21 23 26 24 22 19 12 3 10 14 13 13 12
5 4 4 5 4 6 6 2 3 8 7 7 5 5 6 6 7 6 6 8 9 12 14 15 15 17 22 22 23 24 23 24 23 24 22 17 8 6 12 11 13 13 14 13
3 5 7 7 4 3 5 2 5 5 7 8 3 3 3 4 5 8 13 13 14 15 18 20 18 21 27 25 28 27 26 27 20 13 8 6 6 7 8 11 13 12 14 16
2 3 7 7 5 5 6 7 8 7 7 7 5 3 5 8 10 14 14 15 18 22 22 20 19 23 28 27 26 23 16 9 3 2 6 7 7 8 9 11 13 17 19 16
3 3 6 4 5 8 6 3 6 5 5 7 8 8 9 9 8 10 12 15 18 20 20 18 19 24 21 19 13 10 7 3 1 4 4 6 9 11 11 13 13 16 19 21
8 6 3 2 5 1 4 8 5 7 5 10 11 6 8 8 8 10 13 16 18 20 23 21 20 18 19 12 7 6 4 3 3 5 8 9 11 14 14 14 18 21 20 22
4 2 1 1 2 4 3 5 6 5 10 8 13 11 11 9 8 11 14 17 18 20 17 19 17 16 13 9 7 6 5 6 7 9 11 12 13 15 18 21 22 24 24 25
2 1 3 4 3 7 11 11 13 12 8 12 15 11 12 10 9 12 15 15 17 16 16 15 12 11 9 7 6 7 8 10 12 14 16 19 20 22 23 25 25 27 29 29
6 12 5 5 7 8 12 10 10 15 12 11 14 13 15 9 13 15 16 16 16 15 14 13 13 14 13 11 10 10 12 15 18 20 22 23 26 30 29 31 32 32 33 35
5 12 6 13 8 6 12 10 11 13 13 14 14 19 18 15 14 19 17 17 17 16 15 16 17 19 18 16 16 16 16 18 21 23 24 24 24 22 25 33 29 31 31 31
17 17 9 3 6 10 14 16 19 19 17 18 18 18 19 16 19 19 17 16 15 15 15 15 16 18 17 17 18 17 18 19 20 20 20 21 22 23 23 25 29 33 30 30
6 7 12 17 14 14 18 19 15 13 12 13 18 18 20 17 14 13 14 14 15 15 14 14 16 18 16 17 18 19 20 21 22 22 22 21 21 22 23 25 26 29 32 32
14 17 17 18 16 14 14 12 15 10 9 13 16 17 18 20 18 15 13 10 12 13 13 14 15 15 15 18 18 18 19 18 18 19 19 19 19 20 23 26 28 28 29 30
18 11 14 14 14 14 12 10 10 9 13 15 15 20 20 19 17 16 16 15 15 14 12 12 12 13 15 15 16 17 18 17 19 18 17 19 20 21 21 21 25 28 32 34
10 12 10 16 16 15 13 15 16 15 14 16 19 20 17 16 14 15 15 12 11 13 12 11 12 13 13 15 15 15 17 16 18 18 17 18 19 18 20 21 23 26 30 35
17 16 17 18 19 18 17 16 16 17 20 22 21 17 16 16 17 15 12 12 12 10 8 9 12 13 13 14 14 15 15 16 19 18 18 19 19 21 19 22 23 24 26 28
16 21 23 22 21 23 18 17 19 18 19 21 21 19 17 16 15 13 10 13 9 5 3 8 11 12 14 15 15 16 13 15 18 18 18 20 21 20 20 22 22 22 23 24
15 19 20 21 19 18 20 21 21 17 17 18 18 17 17 15 11 10 9 7 4 5 4 8 11 13 14 14 13 14 14 15 16 17 17 20 21 19 23 24 22 22 23 23
16 17 19 20 19 18 17 19 21 21 20 18 17 16 17 13 11 9 7 5 2 4 5 7 8 9 11 12 12 13 13 14 13 14 17 20 20 20 24 23 23 24 24 22
17 19 19 18 18 17 17 19 20 20 19 16 15 13 11 10 7 7 5 1 2 4 5 6 7 8 9 11 11 11 12 14 14 12 15 18 20 19 22 22 23 24 24 24
17 16 17 19 22 19 15 14 15 16 16 13 11 9 10 10 6 4 3 1 2 3 5 5 5 7 9 10 10 10 12 14 15 13 15 19 21 21 21 21 22 23 24 24
16 17 18 17 14 12 14 15 17 13 12 9 7 5 6 5 3 6 2 2 3 4 6 5 6 9 11 11 11 10 11 13 15 15 17 21 23 22 21 20 21 22 24 24
18 15 15 15 13 14 14 13 11 11 10 8 5 3 7 5 5 3 0 4 6 6 6 6 7 9 11 11 11 10 11 13 15 15 18 21 23 23 22 22 22 23 24 24
19 19 18 17 16 14 12 9 9 7 5 4 2 3 8 7 4 1 3 6 7 8 7 6 8 9 11 12 12 9 11 14 15 16 19 22 24 23 22 22 22 23 23 24

GFSNGP_925_spd_042.txt.gz
Wind_Speed
4 4 5 4 5 7 7 6 6 7 8 9 6 6 6 4 2 3 2 2 3 3 4 6 9 10 15 18 17 18 18 19 20 23 21 18 18 20 17 17 13 15 13 10
3 3 3 3 6 6 4 2 5 5 6 7 2 2 5 4 6 8 7 7 8 7 4 3 6 12 14 17 18 19 17 18 19 19 17 20 22 22 21 18 16 8 8 12
4 3 4 6 8 8 6 5 8 7 10 6 3 5 3 5 7 8 7 7 8 8 10 16 14 4 5 7 9 12 15 16 20 20 21 22 21 19 16 10 2 9 12 14
3 3 2 6 1 3 8 6 6 4 4 7 6 5 6 5 5 7 7 8 8 10 15 17 15 15 13 10 12 16 18 18 20 23 24 22 19 14 6 0 7 11 11 11
5 4 5 3 4 7 7 9 6 6 6 7 7 5 6 7 8 7 6 6 10 15 16 17 18 17 20 22 23 23 22 22 22 24 24 18 10 4 10 8 10 11 13 12
3 5 7 8 4 5 4 6 7 8 9 10 6 4 3 5 5 7 11 14 15 17 18 19 17 18 23 24 26 24 24 26 24 16 11 3 6 10 8 8 11 12 14 16
2 3 7 7 4 4 5 8 8 12 8 8 5 3 7 8 9 12 14 16 19 22 22 18 18 23 26 25 24 22 19 14 9 3 2 5 6 7 8 10 13 15 18 19
3 3 7 8 4 9 7 1 6 7 8 6 9 9 9 9 8 10 13 16 19 21 22 21 23 28 25 21 15 12 10 7 5 3 2 4 7 9 11 13 15 18 19 24
9 7 4 6 5 4 5 5 7 8 6 10 12 6 7 9 9 10 14 18 20 22 25 23 21 20 20 13 10 10 9 8 6 6 7 8 11 13 14 15 18 23 25 28
4 5 6 4 3 3 2 4 5 4 10 10 11 11 12 10 9 11 15 19 22 23 22 21 20 18 15 11 10 11 11 11 11 12 13 13 14 15 17 20 24 25 24 23
3 4 2 6 5 4 5 7 11 9 6 11 15 12 12 11 8 13 16 19 20 19 18 19 17 18 15 12 9 11 11 12 13 14 15 17 18 19 20 21 21 24 24 25
8 10 6 5 9 7 8 6 8 15 10 9 12 13 13 10 14 16 18 19 19 20 21 18 20 19 18 16 14 14 14 14 15 17 18 19 20 22 22 21 22 23 26 27
3 9 4 11 8 5 11 9 9 11 13 15 15 19 19 15 15 20 20 20 20 19 19 18 18 18 16 15 14 15 14 15 17 18 18 18 19 19 24 26 19 21 23 26
10 10 7 6 6 9 14 13 19 18 18 19 21 21 22 19 21 19 17 19 17 18 17 15 15 16 14 14 14 14 14 14 16 17 17 18 19 19 19 21 27 32 29 29
6 6 6 15 15 13 16 17 15 13 12 15 19 20 21 18 17 16 16 16 18 17 15 13 13 12 13 14 13 14 15 15 16 16 16 16 18 17 17 19 19 23 31 35
13 12 11 15 15 14 13 12 16 13 13 16 18 18 19 20 17 15 14 13 13 13 12 12 12 11 11 13 12 13 14 13 15 16 15 17 16 18 17 19 20 20 22 27
18 8 11 13 14 12 12 11 13 12 13 15 18 21 22 21 19 17 17 16 15 14 11 11 10 9 10 11 10 10 13 12 16 16 16 16 18 16 17 16 19 20 21 25
7 9 9 14 15 15 13 12 16 18 15 19 21 22 20 16 16 16 16 14 13 12 10 9 9 8 9 11 10 11 12 13 14 14 15 17 17 17 16 18 19 20 22 24
10 14 15 15 19 16 15 16 16 16 22 24 21 17 18 19 18 16 15 13 11 9 6 6 8 8 10 11 12 12 11 13 13 13 13 15 17 18 17 21 21 21 23 23
15 20 21 21 22 23 19 19 21 18 20 25 24 20 17 18 19 17 12 12 8 6 3 5 7 9 10 10 11 12 11 12 13 13 13 16 18 18 18 21 21 22 24 24
14 16 17 19 19 19 21 22 22 20 20 22 21 18 17 17 15 13 11 8 4 4 3 4 7 8 9 9 10 11 11 12 12 12 14 16 19 19 20 22 22 23 25 25
14 13 17 19 19 18 17 18 22 24 22 19 19 21 20 15 13 10 7 6 4 2 3 5 6 7 8 9 10 10 10 11 13 12 12 16 19 21 21 22 23 23 24 25
16 18 19 18 18 18 19 19 20 21 21 19 18 16 13 11 9 9 7 3 2 2 4 6 6 6 8 9 10 10 9 10 12 12 13 16 19 20 21 22 22 22 24 26
18 17 17 18 21 20 16 14 16 16 17 14 11 10 11 11 7 5 5 3 1 3 6 7 6 7 8 9 10 10 9 10 12 13 14 16 19 20 21 22 23 23 24 25
17 16 17 16 15 14 17 15 17 14 13 10 8 5 4 4 1 5 3 1 3 5 7 8 7 7 8 10 10 11 10 11 13 14 15 18 21 23 23 23 23 24 24 26
16 15 16 16 15 15 15 14 13 11 10 8 5 3 3 2 3 3 1 3 5 6 7 8 8 8 9 10 11 12 11 12 14 16 17 19 22 24 24 24 24 25 25 26
19 18 18 19 18 16 14 12 11 8 6 4 2 1 5 6 4 2 3 4 6 7 8 8 8 9 10 12 13 13 12 14 16 18 18 21 23 25 25 25 25 25 24 25

GFSNGP_925_spd_045.txt.gz
Wind_Speed
5 4 5 6 6 11 10 7 8 8 9 9 7 6 5 5 3 5 6 6 5 3 3 4 6 6 6 7 9 10 9 7 5 5 6 8 11 14 16 19 20 17 15 13
3 4 7 6 5 8 8 4 9 7 9 11 4 2 1 2 6 10 10 11 12 12 11 7 2 3 2 1 1 2 2 3 5 10 13 16 16 18 19 18 18 14 5 7
4 0 2 4 8 10 6 5 6 9 11 5 6 6 6 8 9 10 10 9 10 10 11 11 10 10 10 9 8 8 9 10 12 15 18 20 22 22 21 17 6 4 11 11
3 2 5 3 1 2 10 6 9 7 5 5 3 6 7 5 10 10 8 8 9 11 13 14 14 15 16 16 16 16 15 14 15 18 22 23 23 18 11 3 4 10 15 15
5 4 3 2 4 7 7 13 10 13 7 6 12 9 4 4 6 9 8 9 11 12 13 14 16 16 20 20 18 18 17 17 17 19 21 20 14 7 1 8 8 8 9 11
3 5 8 5 4 5 4 12 8 11 11 16 12 8 6 8 7 9 11 11 13 14 15 18 16 17 22 20 19 18 17 18 18 18 14 10 2 3 5 5 7 8 11 13
3 4 6 6 4 5 6 8 5 10 13 19 11 1 11 12 9 12 12 14 15 17 19 18 17 21 24 22 21 18 17 14 12 8 4 2 3 4 5 6 10 12 14 16
4 2 7 8 6 10 6 2 5 9 13 13 10 13 14 13 12 13 15 16 17 21 20 19 19 23 22 19 14 13 13 11 10 8 6 5 5 6 8 8 9 12 16 18
10 7 2 10 4 6 4 4 5 11 11 15 17 11 14 14 13 14 17 18 19 23 23 20 18 18 19 13 12 13 12 11 9 8 7 7 7 7 8 9 10 13 15 17
3 6 7 8 4 3 4 5 5 7 15 16 15 17 16 14 14 15 19 20 22 23 22 19 16 16 15 14 13 12 12 10 9 9 8 8 8 9 10 12 14 15 17 21
3 4 3 9 11 5 6 5 9 9 10 15 20 17 17 15 15 19 21 20 20 21 20 18 16 18 16 14 11 12 11 9 9 9 10 10 10 11 11 10 11 15 16 18
6 7 4 7 12 11 11 12 14 16 14 13 17 19 19 15 20 22 21 21 21 20 20 18 17 17 15 13 12 10 10 9 10 10 10 10 11 12 10 10 10 9 14 16
4 4 4 2 5 4 7 11 10 13 16 20 17 22 23 19 22 24 22 22 21 20 19 17 16 16 13 12 11 12 10 8 8 9 9 10 11 11 12 12 10 10 14 16
4 6 3 4 5 6 12 12 16 18 19 21 24 25 26 25 25 23 21 21 21 20 18 17 15 14 11 10 10 10 9 11 9 9 9 10 11 12 12 14 15 16 15 17
3 5 2 13 13 13 14 15 15 14 15 16 22 25 26 23 22 23 23 22 20 19 16 14 13 12 9 9 9 10 9 9 8 8 8 9 10 11 11 14 15 17 19 18
11 6 7 11 15 13 15 14 17 15 14 15 19 21 22 24 25 23 23 19 18 16 14 14 12 9 9 9 8 8 7 9 9 7 8 9 10 11 12 13 15 17 18 21
7 5 8 13 6 12 13 12 14 14 15 17 22 23 24 23 20 18 17 18 22 18 14 12 11 9 9 9 8 7 6 6 8 7 8 9 9 10 11 12 14 15 16 18
5 6 6 12 14 11 14 13 16 20 16 23 26 27 23 16 18 19 17 18 19 16 12 10 9 9 9 9 7 6 6 6 6 6 7 8 9 10 10 11 13 15 16 17
9 15 14 13 16 13 13 13 18 23 24 24 23 17 17 19 19 18 15 16 15 13 9 8 8 8 8 8 7 7 6 7 6 5 6 8 8 9 10 11 13 14 16 17
13 18 20 17 18 20 16 19 22 22 21 24 22 20 17 16 20 19 15 11 8 10 9 7 6 7 6 6 7 6 7 7 6 6 6 8 9 10 10 12 12 13 14 15
13 13 14 17 17 20 21 22 24 20 18 21 20 16 17 17 17 16 12 10 8 8 7 6 5 5 5 5 5 7 7 7 7 6 7 8 10 11 11 12 13 13 14 15
11 13 15 19 19 19 18 18 21 22 21 19 19 21 20 14 13 9 7 8 9 6 5 4 3 4 4 5 6 6 6 7 8 8 6 8 10 11 12 13 14 14 15 16
16 18 20 19 19 19 18 19 20 20 19 18 18 16 12 10 8 7 6 5 6 4 3 2 3 3 4 5 6 7 8 8 9 9 9 10 11 12 14 14 17 15 16 17
20 20 20 20 21 21 18 16 16 17 19 17 14 12 12 10 7 7 8 6 3 2 2 3 4 4 5 7 8 9 10 10 10 11 11 12 12 15 17 18 19 19 19 20
20 19 19 17 17 15 17 17 17 16 15 13 10 8 7 5 3 7 6 4 1 2 4 5 5 6 7 8 9 10 12 12 12 12 13 14 15 17 19 20 20 21 22 21
21 18 20 19 17 15 13 12 12 10 9 8 7 5 5 5 6 6 4 1 2 4 5 6 6 7 8 9 10 12 12 11 12 14 16 16 17 19 21 22 22 22 22 22
23 21 20 21 20 17 15 12 10 8 7 5 4 2 2 4 4 3 1 2 3 5 7 8 7 8 10 11 12 13 12 13 14 16 18 18 18 20 22 23 23 23 22 22

GFSNGP_925_spd_048.txt.gz
Wind_Speed
18 16 15 16 14 15 16 17 13 13 16 12 12 11 7 4 4 5 7 7 7 7 6 7 7 8 7 8 7 7 7 7 7 7 7 6 7 7 9 10 12 14 17 15
13 13 14 16 17 18 19 17 14 16 18 12 13 6 7 5 7 8 8 8 7 7 7 8 8 10 11 11 10 11 11 10 11 11 11 11 12 13 13 15 15 14 13 11
13 9 8 6 16 16 16 14 15 16 16 14 10 12 10 6 9 11 12 12 11 11 11 13 13 13 14 13 13 14 15 14 13 14 14 15 15 16 16 16 16 11 7 8
5 4 7 8 3 17 18 15 15 16 16 14 12 4 6 7 11 13 13 12 10 10 13 14 15 17 17 17 17 16 16 15 15 16 17 17 16 15 12 11 5 3 8 10
4 9 9 4 6 8 12 16 14 18 18 11 6 9 6 6 11 12 11 10 12 13 14 15 16 17 19 19 18 17 16 16 15 15 16 15 13 10 5 0 4 4 5 6
4 7 7 9 11 10 4 15 10 12 14 11 14 9 8 13 13 12 14 14 15 15 16 17 16 18 20 20 19 18 17 17 16 14 12 10 6 3 1 2 2 3 4 6
11 7 6 3 10 11 9 14 5 7 9 12 14 6 17 17 13 14 15 17 16 16 16 17 17 19 21 21 20 18 17 16 13 11 9 7 5 3 2 2 3 5 6 8
8 7 11 12 11 11 13 3 7 8 10 14 10 12 17 17 15 14 16 18 17 18 18 17 18 19 21 20 17 16 15 14 12 9 7 5 4 3 3 4 6 7 8 10
9 6 3 20 15 17 6 7 7 9 10 14 14 16 17 16 16 15 18 18 19 21 21 18 17 17 19 17 15 14 13 12 10 9 7 5 4 4 4 6 7 8 10 11
2 10 12 12 16 6 10 9 6 8 14 18 18 19 18 16 15 15 20 20 22 22 21 19 17 16 17 16 14 14 13 11 9 8 5 5 4 4 4 6 7 8 9 11
12 13 6 11 15 15 10 7 7 9 15 20 20 20 18 17 16 18 20 21 21 21 20 19 17 16 14 13 13 12 11 9 7 6 5 4 4 4 4 5 5 6 7 10
8 14 7 15 7 14 14 13 10 13 16 17 19 21 17 17 20 23 23 23 21 21 21 19 18 17 14 11 10 10 10 8 6 5 5 4 4 2 5 5 4 3 7 8
8 2 4 3 4 5 12 11 10 13 15 19 18 19 22 17 23 22 23 23 22 22 21 20 17 15 12 11 10 10 9 7 6 5 4 4 3 3 5 3 6 4 7 9
3 4 3 5 2 6 7 11 7 11 14 16 20 23 23 22 24 22 20 20 22 22 21 19 17 15 11 11 11 11 9 9 5 4 4 3 3 4 5 6 8 8 9 10
5 1 2 6 8 9 8 13 13 11 12 14 21 22 24 23 22 22 22 20 19 18 15 16 15 13 10 10 10 9 7 6 4 4 3 3 3 4 5 6 7 9 11 11
5 4 4 5 8 13 13 13 12 14 14 13 16 22 25 26 26 25 23 20 18 13 10 12 12 10 9 8 8 7 7 7 5 3 3 3 4 5 6 7 8 10 11 13
7 6 8 9 9 12 11 11 13 12 16 15 18 25 28 27 26 23 21 22 20 15 11 10 10 9 8 7 6 5 4 4 4 3 3 4 5 5 6 8 9 10 11 12
6 1 5 11 12 13 12 12 12 16 17 25 26 25 24 21 20 21 21 19 17 15 11 9 8 8 8 6 6 5 5 3 3 3 3 4 5 6 7 8 9 11 13 13
4 5 7 9 11 13 14 13 17 22 24 26 25 21 23 22 23 21 20 16 14 13 9 7 8 8 7 7 6 5 4 3 2 2 3 4 5 7 7 9 10 11 13 14
10 12 16 16 17 19 15 21 25 23 23 26 26 23 21 20 21 19 15 12 8 11 10 7 6 6 6 6 6 4 4 3 3 2 3 4 5 7 8 9 10 12 13 14
10 10 13 15 16 22 23 24 25 22 20 23 23 20 20 18 17 16 14 12 10 10 9 7 5 4 3 3 3 3 2 2 2 3 4 5 6 8 9 10 11 12 13 14
10 11 14 18 20 22 22 24 25 23 22 22 20 21 20 17 15 12 9 11 10 8 6 5 4 2 1 2 2 2 2 3 3 4 4 5 7 8 10 11 12 13 14 15
17 19 21 20 21 23 24 23 23 22 19 17 17 16 15 12 10 8 8 7 8 6 4 3 1 1 2 2 3 4 4 5 5 5 6 7 8 9 10 12 13 14 15 16
21 22 22 22 22 24 20 20 21 20 20 19 17 14 12 11 9 8 10 9 7 5 3 1 1 3 3 4 5 5 6 6 7 7 8 9 10 10 11 13 14 15 16 17
21 21 21 20 19 17 19 18 19 18 17 16 13 11 9 7 4 7 6 6 4 3 1 2 3 4 4 5 6 6 7 8 8 9 10 11 12 12 13 14 15 16 17 16
22 20 22 22 18 16 14 14 14 12 11 10 9 7 6 6 7 6 5 4 3 1 1 2 3 4 6 6 7 8 8 9 9 10 11 12 13 14 14 15 16 16 16 17
23 21 21 21 20 18 17 15 14 13 11 8 7 5 4 3 3 3 3 2 2 2 3 4 5 6 6 8 9 9 10 10 10 12 13 13 13 13 14 15 16 16 16 16